User: anonymous   Login
Location: Unspecified
(0.0000°N, 0.0000°E)
Time: 23:10:21
(UTC+00:00)
Language:

UGUISU - Orbit

View from above orbital plane
View from above orbital plane
View from above satellite
View from above satellite

Ground track
Ground track

The orbit data is extracted from the following two-line orbital elements,

1 44331U 98067QG  21207.37674202  .00092143  00000-0  42951-3 0  9991
2 44331  51.6312  83.3075 0002906 110.6120 249.5195 15.82561790120304
Epoch (UTC): 26 July 2021 09:02:30
Eccentricity: 0.0002906
inclination: 51.6312°
perigee height: 321 km
apogee height: 325 km
right ascension of ascending node: 83.3075°
argument of perigee: 110.6120°
revolutions per day: 15.82561790
mean anomaly at epoch: 249.5195°
orbit number at epoch: 12030

The dashed part of the orbit path shows where the satellite is in the earth's shadow,  

DLR